Location: Aufkirchen
(47.9603°N, 11.3653°E)
Time: 07:36:29
(UTC+01:00)

Transit 2A - Pass Details

Date: 30 November 2020
Orbit: 598 x 960 km, 66.7° (Epoch: 16 January)

Event Time Altitude Azimuth Distance (km) Brightness Sun altitude
Rises 02:51:18 0° 319° (NW) 3,277 - -47.5°
Reaches altitude 10° 02:54:01 10° 310° (NW) 2,280 - -47.0°
Maximum altitude 02:58:32 32° 249° (WSW) 1,205 - -46.3°
Drops below altitude 10° 03:02:41 10° 186° (S) 2,073 - -45.7°
Sets 03:05:04 0° 176° (S) 2,935 - -45.3°
